AUA14P LOWW-LPPT

Flight info

Callsign AUA14P
Flight time 3h 15m
Altitude 34000
Route OSPEN4C/29 OSPEN DCT ABRUK DCT SETAL DCT DETSA/N0445F350 DCT GEKBA DCT VAMTU DCT KOLON DCT GANGU DCT PADKO/N0445F370 DCT DIVKO DCT NILDU DCT NENDA DCT BCN DCT ANTON DCT XIKEN DCT OSLAP DCT SALAS DCT RAMON DCT NEXAS DCT DISVU DCT ADUXO N975 CJN/N0337F130 N975 PALIO DCT AKOKI DCT GOTOR DCT TLD DCT NATPA DCT MELON DCT CCS DCT ELVAR DCT UPULO
Aircraft A320/M-SDE3FGHIRWY/LB1

Departure

Time 2026-04-26 15:50
Airport Vienna International Airport (LOWW)

Arrival

Time 2026-04-26 19:05
Airport Lisbon Humberto Delgado Airport (LPPT)
Time Latitude Longitude Altitude Speed Heading
2026-04-26 15:22 48.11880 16.56822 610 ft 0 kts 206°
2026-04-26 15:42 48.11889 16.56829 609 ft 4 kts 205°
2026-04-26 15:43 48.11914 16.56844 616 ft 4 kts 195°
2026-04-26 15:43 48.11940 16.56849 619 ft 4 kts 165°
2026-04-26 15:43 48.11955 16.56836 622 ft 0 kts 116°
2026-04-26 15:46 48.11940 16.56882 620 ft 11 kts 116°
2026-04-26 15:46 48.11927 16.56921 623 ft 15 kts 116°
2026-04-26 15:47 48.11854 16.57150 614 ft 13 kts 103°
2026-04-26 15:47 48.11724 16.57382 617 ft 19 kts 166°
2026-04-26 15:47 48.11588 16.57442 613 ft 22 kts 164°
2026-04-26 15:48 48.11432 16.57417 620 ft 23 kts 205°
2026-04-26 15:48 48.11297 16.57319 607 ft 23 kts 207°
2026-04-26 15:48 48.11146 16.57206 616 ft 25 kts 205°
2026-04-26 15:48 48.11060 16.57118 617 ft 15 kts 249°
2026-04-26 15:49 48.11080 16.57030 614 ft 12 kts 293°
2026-04-26 15:49 48.11190 16.56692 618 ft 70 kts 296°
2026-04-26 15:49 48.11497 16.55744 614 ft 129 kts 296°
2026-04-26 15:49 48.11955 16.54329 744 ft 162 kts 302°
2026-04-26 15:50 48.12184 16.52688 1431 ft 170 kts 264°
2026-04-26 15:50 48.11657 16.51045 2035 ft 186 kts 233°
2026-04-26 15:50 48.10552 16.49772 2255 ft 213 kts 216°
2026-04-26 15:50 48.09238 16.48506 2502 ft 237 kts 216°
2026-04-26 15:51 48.07768 16.47104 2781 ft 262 kts 219°
2026-04-26 15:51 48.06296 16.45397 3454 ft 272 kts 222°
2026-04-26 15:51 48.04837 16.43557 4250 ft 276 kts 225°
2026-04-26 15:51 48.03398 16.41682 5207 ft 274 kts 226°
2026-04-26 15:52 48.01974 16.39804 6133 ft 273 kts 227°
2026-04-26 15:52 48.00555 16.37933 7055 ft 271 kts 228°
2026-04-26 15:52 47.99130 16.36060 7836 ft 274 kts 227°
2026-04-26 15:52 47.98177 16.34807 8330 ft 277 kts 227°
2026-04-26 15:53 47.96375 16.32050 9306 ft 277 kts 240°
2026-04-26 15:53 47.95433 16.29570 10073 ft 275 kts 252°
2026-04-26 15:53 47.94756 16.26834 10430 ft 292 kts 254°
2026-04-26 15:53 47.94044 16.23866 10596 ft 315 kts 254°
2026-04-26 15:54 47.93281 16.20713 10970 ft 328 kts 254°
2026-04-26 15:54 47.92492 16.17494 11589 ft 332 kts 253°
2026-04-26 15:54 47.91688 16.14242 12231 ft 336 kts 253°
2026-04-26 15:54 47.90871 16.10944 12859 ft 341 kts 253°
2026-04-26 15:55 47.90043 16.07616 13506 ft 344 kts 253°
2026-04-26 15:55 47.89215 16.04294 14119 ft 349 kts 253°
2026-04-26 15:55 47.88366 16.00890 14617 ft 352 kts 252°
2026-04-26 15:55 47.87254 15.97597 15139 ft 361 kts 241°
2026-04-26 15:56 47.85666 15.94654 15666 ft 370 kts 229°
2026-04-26 15:56 47.83662 15.92179 16166 ft 378 kts 221°
2026-04-26 15:56 47.81554 15.89808 16724 ft 381 kts 221°
2026-04-26 15:56 47.79429 15.87414 17207 ft 385 kts 221°
2026-04-26 15:57 47.77281 15.84991 17733 ft 389 kts 221°
2026-04-26 15:57 47.75117 15.82549 18262 ft 392 kts 220°
2026-04-26 15:57 47.72942 15.80091 18760 ft 395 kts 220°
2026-04-26 15:57 47.71490 15.78448 19063 ft 397 kts 221°
2026-04-26 15:58 47.68543 15.75126 19756 ft 399 kts 221°
2026-04-26 15:58 47.66322 15.72633 20225 ft 401 kts 220°
2026-04-26 15:58 47.64088 15.70131 20703 ft 403 kts 221°
2026-04-26 15:58 47.61845 15.67616 21207 ft 404 kts 220°
2026-04-26 15:59 47.59598 15.65099 21714 ft 405 kts 220°
2026-04-26 15:59 47.57341 15.62573 22152 ft 408 kts 220°
2026-04-26 15:59 47.55069 15.60033 22559 ft 411 kts 220°
2026-04-26 15:59 47.52786 15.57480 22994 ft 413 kts 221°
2026-04-26 16:00 47.50684 15.54674 23416 ft 411 kts 231°
2026-04-26 16:00 47.48943 15.51346 23812 ft 409 kts 241°
2026-04-26 16:00 47.47632 15.47623 24124 ft 407 kts 251°
2026-04-26 16:00 47.46765 15.43652 24481 ft 406 kts 257°
2026-04-26 16:01 47.45995 15.39628 24846 ft 407 kts 257°
2026-04-26 16:01 47.45215 15.35599 25189 ft 409 kts 257°
2026-04-26 16:01 47.44423 15.31552 25533 ft 411 kts 256°
2026-04-26 16:01 47.43624 15.27486 25874 ft 412 kts 256°
2026-04-26 16:02 47.42823 15.23417 26198 ft 414 kts 256°
2026-04-26 16:02 47.42013 15.19328 26493 ft 416 kts 255°
2026-04-26 16:02 47.41198 15.15228 26841 ft 417 kts 255°
2026-04-26 16:02 47.40658 15.12509 27073 ft 417 kts 256°
2026-04-26 16:03 47.39564 15.06991 27475 ft 420 kts 256°
2026-04-26 16:03 47.38740 15.02842 27799 ft 422 kts 256°
2026-04-26 16:03 47.37915 14.98676 28093 ft 424 kts 256°
2026-04-26 16:03 47.37098 14.94547 28398 ft 425 kts 256°
2026-04-26 16:04 47.36265 14.90349 28695 ft 427 kts 256°
2026-04-26 16:04 47.35427 14.86145 28979 ft 428 kts 256°
2026-04-26 16:04 47.34582 14.81925 29257 ft 430 kts 256°
2026-04-26 16:04 47.33729 14.77697 29495 ft 431 kts 255°
2026-04-26 16:05 47.32869 14.73444 29747 ft 432 kts 255°
2026-04-26 16:05 47.32008 14.69186 30000 ft 434 kts 255°
2026-04-26 16:05 47.31145 14.64917 30233 ft 436 kts 256°
2026-04-26 16:05 47.30278 14.60637 30480 ft 436 kts 255°
2026-04-26 16:06 47.29413 14.56371 30825 ft 434 kts 255°
2026-04-26 16:06 47.28546 14.52112 31106 ft 433 kts 255°
2026-04-26 16:06 47.27681 14.47866 31386 ft 433 kts 255°
2026-04-26 16:06 47.26816 14.43626 31651 ft 433 kts 255°
2026-04-26 16:07 47.25948 14.39395 31963 ft 431 kts 255°
2026-04-26 16:07 47.25078 14.35168 32236 ft 431 kts 255°
2026-04-26 16:07 47.24221 14.31009 32545 ft 430 kts 255°
2026-04-26 16:07 47.23354 14.26806 32858 ft 429 kts 255°
2026-04-26 16:08 47.22490 14.22617 33177 ft 427 kts 255°
2026-04-26 16:08 47.21907 14.19798 33386 ft 427 kts 255°
2026-04-26 16:08 47.20765 14.14277 33781 ft 425 kts 255°
2026-04-26 16:08 47.19905 14.10123 34066 ft 425 kts 255°
2026-04-26 16:09 47.19045 14.05987 34136 ft 422 kts 255°
2026-04-26 16:09 47.17319 13.97765 34141 ft 420 kts 254°
2026-04-26 16:10 47.15592 13.89567 34139 ft 420 kts 255°
2026-04-26 16:10 47.13860 13.81351 34142 ft 421 kts 254°
2026-04-26 16:11 47.12121 13.73140 34137 ft 421 kts 254°
2026-04-26 16:11 47.10376 13.64918 34137 ft 421 kts 254°
2026-04-26 16:12 47.08625 13.56717 34141 ft 421 kts 254°
2026-04-26 16:12 47.05995 13.44437 34131 ft 420 kts 254°
2026-04-26 16:13 47.04230 13.36252 34139 ft 420 kts 254°
2026-04-26 16:13 47.02464 13.28081 34120 ft 421 kts 254°
2026-04-26 16:14 47.00689 13.19919 34121 ft 420 kts 254°
2026-04-26 16:15 46.98028 13.07761 34131 ft 419 kts 254°
2026-04-26 16:15 46.96250 12.99634 34137 ft 419 kts 254°
2026-04-26 16:16 46.93564 12.87466 34132 ft 419 kts 253°
2026-04-26 16:16 46.91765 12.79371 34128 ft 418 kts 254°
2026-04-26 16:17 46.89971 12.71276 34121 ft 418 kts 253°
2026-04-26 16:17 46.88169 12.63200 34131 ft 418 kts 253°
2026-04-26 16:18 46.85455 12.51117 34145 ft 417 kts 253°
2026-04-26 16:19 46.82723 12.39057 34155 ft 417 kts 253°
2026-04-26 16:20 46.79629 12.27206 34159 ft 419 kts 241°
2026-04-26 16:20 46.76185 12.20299 34524 ft 422 kts 235°
2026-04-26 16:20 46.74429 12.16941 34709 ft 421 kts 235°
2026-04-26 16:21 46.72650 12.13530 34908 ft 422 kts 235°
2026-04-26 16:21 46.70878 12.10125 35064 ft 422 kts 235°
2026-04-26 16:21 46.67327 12.03306 35095 ft 422 kts 235°
2026-04-26 16:22 46.63764 11.96504 35092 ft 422 kts 235°
2026-04-26 16:22 46.60199 11.89715 35086 ft 422 kts 235°
2026-04-26 16:23 46.56632 11.82936 35088 ft 422 kts 235°
2026-04-26 16:23 46.53062 11.76154 35071 ft 422 kts 235°
2026-04-26 16:24 46.49486 11.69391 35055 ft 422 kts 235°
2026-04-26 16:24 46.45906 11.62641 35041 ft 422 kts 234°
2026-04-26 16:25 46.42312 11.55888 35027 ft 422 kts 235°
2026-04-26 16:25 46.38745 11.49196 35105 ft 422 kts 234°
2026-04-26 16:26 46.35734 11.43542 35125 ft 423 kts 234°
2026-04-26 16:26 46.31539 11.35703 35122 ft 424 kts 234°
2026-04-26 16:27 46.27914 11.28957 35125 ft 424 kts 234°
2026-04-26 16:27 46.24289 11.22219 35230 ft 425 kts 234°
2026-04-26 16:28 46.20661 11.15489 35243 ft 424 kts 234°
2026-04-26 16:28 46.17032 11.08776 35239 ft 424 kts 234°
2026-04-26 16:29 46.13409 11.02070 35241 ft 423 kts 234°
2026-04-26 16:29 46.09793 10.95420 35241 ft 424 kts 234°
2026-04-26 16:30 46.06152 10.88744 35225 ft 423 kts 234°
2026-04-26 16:30 46.02514 10.82070 35205 ft 424 kts 234°
2026-04-26 16:31 45.98868 10.75404 35215 ft 425 kts 234°
2026-04-26 16:31 45.95206 10.68732 35210 ft 425 kts 234°
2026-04-26 16:32 45.92165 10.63198 35200 ft 424 kts 234°
2026-04-26 16:32 45.87899 10.55443 35171 ft 424 kts 234°
2026-04-26 16:33 45.84235 10.48808 35157 ft 424 kts 234°
2026-04-26 16:33 45.80567 10.42174 35142 ft 424 kts 234°
2026-04-26 16:34 45.76894 10.35550 35120 ft 425 kts 233°
2026-04-26 16:34 45.73207 10.28926 35126 ft 425 kts 233°
2026-04-26 16:35 45.69517 10.22309 35084 ft 425 kts 233°
2026-04-26 16:35 45.65843 10.15752 35107 ft 424 kts 233°
2026-04-26 16:36 45.62169 10.09177 35102 ft 423 kts 233°
2026-04-26 16:36 45.58500 10.02623 35097 ft 422 kts 233°
2026-04-26 16:37 45.55438 9.97195 35091 ft 422 kts 233°
2026-04-26 16:37 45.51739 9.90640 35082 ft 421 kts 233°
2026-04-26 16:38 45.48066 9.84140 35075 ft 421 kts 233°
2026-04-26 16:38 45.44416 9.77689 35127 ft 421 kts 233°
2026-04-26 16:39 45.40736 9.71209 35131 ft 421 kts 233°
2026-04-26 16:39 45.37056 9.64744 35129 ft 420 kts 233°
2026-04-26 16:40 45.33368 9.58277 35109 ft 420 kts 233°
2026-04-26 16:40 45.29675 9.51825 35091 ft 421 kts 233°
2026-04-26 16:41 45.25981 9.45378 35073 ft 421 kts 233°
2026-04-26 16:41 45.22284 9.38931 35060 ft 421 kts 233°
2026-04-26 16:42 45.18583 9.32488 35047 ft 421 kts 233°
2026-04-26 16:42 45.14901 9.26105 35052 ft 421 kts 232°
2026-04-26 16:43 45.11180 9.19678 35072 ft 422 kts 232°
2026-04-26 16:43 45.07455 9.13257 35083 ft 422 kts 232°
2026-04-26 16:44 45.03730 9.06845 35088 ft 422 kts 232°
2026-04-26 16:44 45.00001 9.00443 35078 ft 423 kts 232°
2026-04-26 16:45 44.96256 8.94017 35059 ft 424 kts 232°
2026-04-26 16:45 44.92502 8.87585 35068 ft 425 kts 232°
2026-04-26 16:46 44.88728 8.81151 35078 ft 426 kts 232°
2026-04-26 16:46 44.84946 8.74725 35081 ft 426 kts 232°
2026-04-26 16:47 44.81202 8.68349 35101 ft 425 kts 232°
2026-04-26 16:47 44.77427 8.61949 35105 ft 424 kts 232°
2026-04-26 16:48 44.73645 8.55561 35115 ft 424 kts 232°
2026-04-26 16:48 44.69871 8.49195 35116 ft 424 kts 232°
2026-04-26 16:49 44.66083 8.42814 35084 ft 425 kts 231°
2026-04-26 16:49 44.62285 8.36433 35093 ft 427 kts 231°
2026-04-26 16:50 44.58474 8.30041 35088 ft 428 kts 231°
2026-04-26 16:50 44.54639 8.23636 35098 ft 429 kts 231°
2026-04-26 16:51 44.50797 8.17228 35095 ft 429 kts 231°
2026-04-26 16:51 44.46952 8.10815 35102 ft 430 kts 231°
2026-04-26 16:52 44.43752 8.05492 35104 ft 431 kts 231°
2026-04-26 16:52 44.39228 7.98008 35106 ft 431 kts 231°
2026-04-26 16:53 44.35355 7.91613 35099 ft 431 kts 231°
2026-04-26 16:53 44.31477 7.85222 35096 ft 432 kts 231°
2026-04-26 16:54 44.27605 7.78867 35111 ft 432 kts 229°
2026-04-26 16:54 44.23189 7.73161 35124 ft 433 kts 223°
2026-04-26 16:55 44.18663 7.67595 35129 ft 434 kts 223°
2026-04-26 16:55 44.14196 7.61946 35127 ft 433 kts 229°
2026-04-26 16:56 44.08275 7.52466 35194 ft 431 kts 230°
2026-04-26 16:57 44.04338 7.46183 35185 ft 430 kts 230°
2026-04-26 16:57 43.98457 7.36803 35169 ft 429 kts 230°
2026-04-26 16:58 43.95195 7.31618 35161 ft 429 kts 230°
2026-04-26 16:59 43.88634 7.21216 35155 ft 429 kts 230°
2026-04-26 17:00 43.80744 7.08781 35147 ft 430 kts 230°
2026-04-26 17:00 43.74847 6.99508 35165 ft 429 kts 230°
2026-04-26 17:01 43.71481 6.92779 35166 ft 425 kts 246°
2026-04-26 17:01 43.69248 6.85219 35158 ft 425 kts 249°
2026-04-26 17:02 43.67019 6.77667 35169 ft 424 kts 249°
2026-04-26 17:02 43.64785 6.70155 35167 ft 423 kts 248°
2026-04-26 17:03 43.62553 6.62656 35156 ft 422 kts 249°
2026-04-26 17:03 43.60323 6.55162 35159 ft 422 kts 248°
2026-04-26 17:04 43.58093 6.47691 35155 ft 421 kts 248°
2026-04-26 17:04 43.55859 6.40229 35156 ft 421 kts 248°
2026-04-26 17:05 43.53629 6.32775 35152 ft 421 kts 248°
2026-04-26 17:05 43.51389 6.25318 35144 ft 421 kts 248°
2026-04-26 17:06 43.49155 6.17923 35142 ft 421 kts 248°
2026-04-26 17:06 43.46900 6.10487 35143 ft 421 kts 248°
2026-04-26 17:07 43.44650 6.03051 35136 ft 421 kts 248°
2026-04-26 17:07 43.42392 5.95633 35133 ft 420 kts 248°
2026-04-26 17:08 43.40129 5.88207 35121 ft 420 kts 248°
2026-04-26 17:08 43.37863 5.80801 35122 ft 420 kts 248°
2026-04-26 17:09 43.35975 5.74649 35115 ft 420 kts 248°
2026-04-26 17:09 43.33314 5.66011 35113 ft 420 kts 248°
2026-04-26 17:10 43.31027 5.58624 35104 ft 420 kts 248°
2026-04-26 17:10 43.28763 5.51298 35095 ft 420 kts 248°
2026-04-26 17:11 43.26479 5.43930 35104 ft 419 kts 248°
2026-04-26 17:11 43.24192 5.36586 35104 ft 418 kts 248°
2026-04-26 17:12 43.20756 5.25591 35125 ft 420 kts 248°
2026-04-26 17:13 43.18442 5.18216 35490 ft 422 kts 248°
2026-04-26 17:13 43.17278 5.14529 35695 ft 422 kts 248°
2026-04-26 17:13 43.14948 5.07142 36086 ft 423 kts 248°
2026-04-26 17:14 43.13783 5.03448 36273 ft 423 kts 248°
2026-04-26 17:14 43.11453 4.96050 36635 ft 423 kts 248°
2026-04-26 17:14 43.10283 4.92347 36800 ft 424 kts 248°
2026-04-26 17:15 43.07929 4.84950 37094 ft 425 kts 248°
2026-04-26 17:15 43.06715 4.81260 37127 ft 426 kts 244°
2026-04-26 17:16 43.03177 4.74755 37121 ft 431 kts 225°
2026-04-26 17:16 42.98678 4.69299 37124 ft 433 kts 224°
2026-04-26 17:17 42.94169 4.63855 37122 ft 433 kts 224°
2026-04-26 17:17 42.89662 4.58417 37116 ft 432 kts 224°
2026-04-26 17:18 42.85147 4.52986 37113 ft 433 kts 224°
2026-04-26 17:18 42.80631 4.47560 37116 ft 433 kts 224°
2026-04-26 17:19 42.73843 4.39424 37107 ft 434 kts 224°
2026-04-26 17:19 42.69305 4.34013 37113 ft 434 kts 224°
2026-04-26 17:20 42.66300 4.30434 37113 ft 434 kts 224°
2026-04-26 17:20 42.60248 4.23234 37124 ft 434 kts 224°
2026-04-26 17:21 42.55700 4.17825 37116 ft 435 kts 224°
2026-04-26 17:21 42.51144 4.12431 37105 ft 435 kts 223°
2026-04-26 17:22 42.46570 4.07027 37112 ft 436 kts 224°
2026-04-26 17:22 42.41994 4.01627 37116 ft 437 kts 223°
2026-04-26 17:23 42.37411 3.96226 37120 ft 437 kts 223°
2026-04-26 17:23 42.32825 3.90828 37114 ft 437 kts 223°
2026-04-26 17:24 42.28231 3.85442 37126 ft 437 kts 223°
2026-04-26 17:24 42.24198 3.79388 37120 ft 433 kts 237°
2026-04-26 17:25 42.21301 3.73869 37119 ft 434 kts 236°
2026-04-26 17:25 42.17804 3.67233 37120 ft 434 kts 236°
2026-04-26 17:26 42.14298 3.60587 37122 ft 435 kts 236°
2026-04-26 17:26 42.10782 3.53950 37121 ft 435 kts 236°
2026-04-26 17:27 42.07267 3.47329 37124 ft 435 kts 236°
2026-04-26 17:27 42.03741 3.40712 37128 ft 435 kts 236°
2026-04-26 17:28 42.00215 3.34095 37126 ft 435 kts 236°
2026-04-26 17:28 41.96684 3.27487 37134 ft 435 kts 236°
2026-04-26 17:29 41.93742 3.21997 37126 ft 435 kts 236°
2026-04-26 17:29 41.89635 3.14330 37136 ft 435 kts 236°
2026-04-26 17:30 41.86097 3.07741 37136 ft 435 kts 236°
2026-04-26 17:30 41.82558 3.01171 37125 ft 435 kts 235°
2026-04-26 17:31 41.78995 2.94593 37127 ft 436 kts 235°
2026-04-26 17:31 41.75426 2.88012 37128 ft 436 kts 235°
2026-04-26 17:32 41.71861 2.81429 37137 ft 436 kts 235°
2026-04-26 17:32 41.68294 2.74861 37145 ft 436 kts 235°
2026-04-26 17:33 41.64621 2.68400 37149 ft 436 kts 233°
2026-04-26 17:34 41.59010 2.58897 37149 ft 436 kts 233°
2026-04-26 17:34 41.55263 2.52506 37146 ft 436 kts 233°
2026-04-26 17:35 41.51530 2.46123 37146 ft 436 kts 233°
2026-04-26 17:35 41.47789 2.39737 37148 ft 436 kts 233°
2026-04-26 17:36 41.44043 2.33369 37151 ft 436 kts 233°
2026-04-26 17:36 41.40298 2.27005 37146 ft 436 kts 233°
2026-04-26 17:37 41.36542 2.20641 37142 ft 437 kts 233°
2026-04-26 17:37 41.32845 2.14247 37143 ft 436 kts 238°
2026-04-26 17:38 41.30380 2.06915 37137 ft 434 kts 257°
2026-04-26 17:38 41.29823 2.02977 37136 ft 434 kts 262°
2026-04-26 17:38 41.28927 1.95035 37134 ft 435 kts 262°
2026-04-26 17:39 41.28002 1.87084 37127 ft 435 kts 262°
2026-04-26 17:39 41.27074 1.79170 37132 ft 436 kts 262°
2026-04-26 17:40 41.26289 1.72497 37134 ft 436 kts 262°
2026-04-26 17:40 41.25195 1.63250 37137 ft 436 kts 262°
2026-04-26 17:41 41.24258 1.55275 37141 ft 437 kts 262°
2026-04-26 17:41 41.23316 1.47308 37138 ft 437 kts 262°
2026-04-26 17:42 41.22366 1.39339 37138 ft 437 kts 262°
2026-04-26 17:42 41.21405 1.31371 37140 ft 437 kts 261°
2026-04-26 17:43 41.20438 1.23406 37144 ft 437 kts 261°
2026-04-26 17:43 41.19464 1.15443 37144 ft 437 kts 261°
2026-04-26 17:44 41.18489 1.07462 37149 ft 437 kts 262°
2026-04-26 17:44 41.17515 0.99561 37148 ft 436 kts 261°
2026-04-26 17:45 41.16539 0.91620 37138 ft 436 kts 262°
2026-04-26 17:45 41.15547 0.83685 37137 ft 436 kts 261°
2026-04-26 17:46 41.14544 0.75751 37129 ft 436 kts 262°
2026-04-26 17:46 41.13539 0.67828 37131 ft 435 kts 262°
2026-04-26 17:47 41.12708 0.61260 37133 ft 434 kts 262°
2026-04-26 17:47 41.11534 0.52011 37117 ft 434 kts 262°
2026-04-26 17:48 41.10517 0.44111 37108 ft 434 kts 262°
2026-04-26 17:48 41.09493 0.36221 37107 ft 434 kts 262°
2026-04-26 17:49 41.08482 0.28388 37100 ft 434 kts 261°
2026-04-26 17:49 41.07455 0.20499 37103 ft 434 kts 262°
2026-04-26 17:50 41.06424 0.12602 37087 ft 434 kts 261°
2026-04-26 17:50 41.05382 0.04721 37094 ft 434 kts 261°
2026-04-26 17:51 41.04333 -0.03159 37082 ft 435 kts 261°
2026-04-26 17:51 41.03279 -0.11047 37080 ft 435 kts 261°
2026-04-26 17:52 41.02218 -0.18952 37078 ft 436 kts 261°
2026-04-26 17:52 41.01144 -0.26853 37082 ft 436 kts 259°
2026-04-26 17:53 40.99317 -0.34469 37091 ft 438 kts 251°
2026-04-26 17:54 40.96237 -0.45852 37085 ft 438 kts 251°
2026-04-26 17:54 40.94178 -0.53440 37088 ft 438 kts 251°
2026-04-26 17:55 40.92120 -0.61026 37092 ft 438 kts 251°
2026-04-26 17:55 40.90048 -0.68606 37098 ft 438 kts 251°
2026-04-26 17:56 40.87967 -0.76178 37099 ft 438 kts 251°
2026-04-26 17:57 40.83803 -0.91258 37097 ft 438 kts 251°
2026-04-26 17:57 40.81708 -0.98826 37101 ft 439 kts 251°
2026-04-26 17:58 40.77500 -1.13969 37105 ft 439 kts 251°
2026-04-26 17:59 40.74315 -1.25311 37107 ft 440 kts 251°
2026-04-26 17:59 40.72204 -1.32814 37114 ft 440 kts 251°
2026-04-26 18:00 40.70081 -1.40381 37119 ft 440 kts 251°
2026-04-26 18:00 40.67954 -1.47940 37120 ft 440 kts 251°
2026-04-26 18:01 40.65821 -1.55503 37114 ft 440 kts 251°
2026-04-26 18:01 40.63671 -1.63071 37114 ft 441 kts 251°
2026-04-26 18:02 40.62229 -1.68123 37116 ft 441 kts 251°
2026-04-26 18:02 40.59366 -1.78140 37117 ft 441 kts 251°
2026-04-26 18:03 40.57208 -1.85697 37119 ft 441 kts 250°
2026-04-26 18:03 40.55041 -1.93249 37116 ft 441 kts 250°
2026-04-26 18:04 40.52862 -2.00802 37106 ft 442 kts 250°
2026-04-26 18:05 40.49582 -2.12133 37104 ft 442 kts 250°
2026-04-26 18:05 40.47391 -2.19672 37097 ft 442 kts 250°
2026-04-26 18:06 40.45203 -2.27165 37095 ft 442 kts 250°
2026-04-26 18:06 40.43007 -2.34708 37083 ft 442 kts 250°
2026-04-26 18:07 40.40801 -2.42237 37089 ft 441 kts 250°
2026-04-26 18:07 40.38596 -2.49743 37086 ft 441 kts 250°
2026-04-26 18:08 40.36588 -2.57278 37083 ft 440 kts 255°
2026-04-26 18:08 40.34924 -2.65005 37079 ft 440 kts 255°
2026-04-26 18:09 40.33257 -2.72724 37073 ft 440 kts 255°
2026-04-26 18:09 40.31581 -2.80452 37076 ft 441 kts 255°
2026-04-26 18:10 40.29892 -2.88174 37080 ft 441 kts 255°
2026-04-26 18:10 40.28199 -2.95895 37077 ft 441 kts 255°
2026-04-26 18:11 40.26500 -3.03607 37080 ft 441 kts 255°
2026-04-26 18:11 40.24795 -3.11311 37072 ft 440 kts 255°
2026-04-26 18:12 40.23081 -3.19024 37070 ft 440 kts 255°
2026-04-26 18:12 40.21381 -3.26671 37077 ft 441 kts 255°
2026-04-26 18:13 40.19664 -3.34373 37083 ft 441 kts 255°
2026-04-26 18:13 40.17939 -3.42074 37087 ft 441 kts 255°
2026-04-26 18:14 40.16213 -3.49776 37086 ft 441 kts 255°
2026-04-26 18:14 40.14480 -3.57469 37090 ft 441 kts 255°
2026-04-26 18:15 40.12746 -3.65132 37088 ft 441 kts 255°
2026-04-26 18:15 40.11004 -3.72826 37089 ft 441 kts 255°
2026-04-26 18:16 40.09251 -3.80513 37078 ft 441 kts 255°
2026-04-26 18:16 40.06918 -3.90736 37070 ft 441 kts 255°
2026-04-26 18:17 40.05162 -3.98408 37071 ft 441 kts 255°
2026-04-26 18:17 40.03392 -4.06061 37072 ft 441 kts 255°
2026-04-26 18:18 40.01614 -4.13718 37071 ft 441 kts 255°
2026-04-26 18:18 39.99842 -4.21368 37069 ft 441 kts 255°
2026-04-26 18:19 39.98062 -4.29023 37064 ft 440 kts 255°
2026-04-26 18:19 39.96308 -4.36625 37059 ft 440 kts 256°
2026-04-26 18:20 39.94728 -4.44329 37058 ft 440 kts 257°
2026-04-26 18:20 39.93472 -4.50763 37050 ft 440 kts 257°
2026-04-26 18:21 39.91669 -4.59783 37033 ft 440 kts 257°
2026-04-26 18:21 39.90091 -4.67493 37039 ft 441 kts 256°
2026-04-26 18:22 39.88500 -4.75204 37040 ft 441 kts 256°
2026-04-26 18:22 39.86910 -4.82924 37046 ft 441 kts 256°
2026-04-26 18:23 39.85311 -4.90636 37044 ft 442 kts 256°
2026-04-26 18:23 39.83715 -4.98300 37048 ft 441 kts 256°
2026-04-26 18:24 39.82119 -5.05998 37050 ft 441 kts 256°
2026-04-26 18:24 39.80507 -5.13688 37052 ft 440 kts 256°
2026-04-26 18:25 39.78887 -5.21356 37051 ft 440 kts 256°
2026-04-26 18:25 39.77264 -5.29033 37049 ft 440 kts 256°
2026-04-26 18:26 39.75644 -5.36695 37044 ft 439 kts 256°
2026-04-26 18:26 39.74023 -5.44340 37045 ft 438 kts 256°
2026-04-26 18:27 39.72396 -5.51971 37042 ft 438 kts 256°
2026-04-26 18:27 39.70782 -5.59545 37040 ft 437 kts 256°
2026-04-26 18:28 39.69158 -5.67154 37031 ft 437 kts 256°
2026-04-26 18:28 39.67517 -5.74748 37025 ft 437 kts 255°
2026-04-26 18:29 39.65872 -5.82340 37022 ft 436 kts 256°
2026-04-26 18:29 39.64226 -5.89921 37027 ft 436 kts 256°
2026-04-26 18:30 39.62579 -5.97496 37026 ft 436 kts 256°
2026-04-26 18:30 39.60933 -6.05070 37028 ft 436 kts 255°
2026-04-26 18:31 39.59285 -6.12591 37037 ft 436 kts 255°
2026-04-26 18:31 39.57625 -6.20141 37041 ft 435 kts 255°
2026-04-26 18:32 39.55960 -6.27686 37039 ft 435 kts 255°
2026-04-26 18:32 39.54292 -6.35216 37032 ft 434 kts 255°
2026-04-26 18:33 39.52591 -6.42717 37026 ft 434 kts 251°
2026-04-26 18:33 39.50021 -6.49808 37028 ft 435 kts 245°
2026-04-26 18:34 39.47337 -6.56826 37024 ft 435 kts 245°
2026-04-26 18:34 39.44672 -6.63784 37029 ft 434 kts 245°
2026-04-26 18:35 39.41982 -6.70770 37023 ft 434 kts 245°
2026-04-26 18:35 39.39292 -6.77752 37022 ft 433 kts 245°
2026-04-26 18:36 39.36597 -6.84719 37006 ft 433 kts 244°
2026-04-26 18:36 39.33904 -6.91680 37006 ft 433 kts 244°
2026-04-26 18:37 39.32546 -6.95184 36812 ft 441 kts 244°
2026-04-26 18:37 39.31155 -6.98769 36567 ft 450 kts 244°
2026-04-26 18:37 39.29745 -7.02397 36125 ft 454 kts 244°
2026-04-26 18:37 39.28332 -7.06014 35633 ft 448 kts 244°
2026-04-26 18:38 39.26927 -7.09599 34997 ft 446 kts 244°
2026-04-26 18:38 39.25532 -7.13159 34340 ft 444 kts 244°
2026-04-26 18:38 39.24141 -7.16712 33692 ft 442 kts 244°
2026-04-26 18:38 39.22750 -7.20263 32764 ft 445 kts 244°
2026-04-26 18:39 39.21350 -7.23831 31854 ft 448 kts 244°
2026-04-26 18:39 39.19925 -7.27392 31194 ft 445 kts 243°
2026-04-26 18:39 39.18492 -7.30908 30619 ft 441 kts 243°
2026-04-26 18:39 39.17081 -7.34336 30037 ft 436 kts 243°
2026-04-26 18:40 39.15664 -7.37772 29404 ft 431 kts 243°
2026-04-26 18:40 39.14269 -7.41160 28852 ft 426 kts 243°
2026-04-26 18:40 39.12889 -7.44517 28291 ft 421 kts 243°
2026-04-26 18:40 39.11527 -7.47831 27744 ft 416 kts 243°
2026-04-26 18:41 39.10180 -7.51105 27217 ft 412 kts 243°
2026-04-26 18:41 39.08845 -7.54350 26691 ft 407 kts 243°
2026-04-26 18:41 39.07527 -7.57552 26185 ft 403 kts 243°
2026-04-26 18:41 39.06221 -7.60726 25685 ft 399 kts 243°
2026-04-26 18:42 39.04930 -7.63861 25213 ft 395 kts 243°
2026-04-26 18:42 39.03660 -7.66973 24761 ft 391 kts 244°
2026-04-26 18:42 39.02439 -7.70098 24365 ft 391 kts 244°
2026-04-26 18:42 39.01254 -7.73231 23953 ft 389 kts 244°
2026-04-26 18:43 39.00083 -7.76370 23547 ft 388 kts 245°
2026-04-26 18:43 38.98920 -7.79494 23098 ft 387 kts 244°
2026-04-26 18:43 38.97769 -7.82561 22703 ft 385 kts 244°
2026-04-26 18:43 38.96601 -7.85641 22302 ft 383 kts 244°
2026-04-26 18:44 38.95430 -7.88707 21885 ft 380 kts 244°
2026-04-26 18:44 38.94266 -7.91740 21497 ft 378 kts 244°
2026-04-26 18:44 38.93104 -7.94759 21092 ft 375 kts 243°
2026-04-26 18:44 38.91954 -7.97741 20861 ft 367 kts 243°
2026-04-26 18:45 38.90837 -8.00616 20727 ft 355 kts 241°
2026-04-26 18:45 38.89462 -8.03206 20458 ft 347 kts 230°
2026-04-26 18:45 38.87926 -8.05569 20165 ft 343 kts 230°
2026-04-26 18:45 38.86402 -8.07915 19828 ft 341 kts 230°
2026-04-26 18:46 38.84909 -8.10214 19501 ft 339 kts 230°
2026-04-26 18:46 38.83409 -8.12528 19163 ft 337 kts 230°
2026-04-26 18:46 38.81910 -8.14840 18812 ft 336 kts 229°
2026-04-26 18:46 38.80417 -8.17140 18501 ft 335 kts 229°
2026-04-26 18:47 38.78932 -8.19425 18152 ft 333 kts 229°
2026-04-26 18:47 38.77453 -8.21699 17807 ft 332 kts 229°
2026-04-26 18:47 38.75979 -8.23968 17486 ft 331 kts 229°
2026-04-26 18:47 38.74512 -8.26228 17162 ft 329 kts 229°
2026-04-26 18:48 38.73049 -8.28480 16830 ft 328 kts 229°
2026-04-26 18:48 38.71589 -8.30720 16501 ft 327 kts 229°
2026-04-26 18:48 38.70131 -8.32956 16171 ft 327 kts 229°
2026-04-26 18:48 38.68677 -8.35183 15852 ft 325 kts 229°
2026-04-26 18:49 38.67227 -8.37402 15534 ft 324 kts 229°
2026-04-26 18:49 38.65786 -8.39607 15213 ft 323 kts 228°
2026-04-26 18:49 38.64365 -8.41782 14892 ft 322 kts 229°
2026-04-26 18:49 38.62931 -8.43976 14582 ft 321 kts 229°
2026-04-26 18:50 38.61503 -8.46160 14266 ft 320 kts 229°
2026-04-26 18:50 38.60075 -8.48341 13949 ft 318 kts 229°
2026-04-26 18:50 38.58657 -8.50506 13614 ft 317 kts 228°
2026-04-26 18:50 38.57246 -8.52655 13395 ft 312 kts 229°
2026-04-26 18:51 38.55870 -8.54749 13253 ft 303 kts 229°
2026-04-26 18:51 38.54531 -8.56786 13091 ft 296 kts 229°
2026-04-26 18:51 38.53199 -8.58777 12836 ft 293 kts 228°
2026-04-26 18:51 38.51868 -8.60735 12557 ft 291 kts 227°
2026-04-26 18:52 38.50535 -8.62684 12291 ft 290 kts 227°
2026-04-26 18:52 38.49207 -8.64621 12021 ft 290 kts 227°
2026-04-26 18:52 38.47897 -8.66532 11748 ft 289 kts 227°
2026-04-26 18:52 38.46559 -8.68489 11466 ft 289 kts 227°
2026-04-26 18:53 38.45240 -8.70424 11192 ft 289 kts 227°
2026-04-26 18:53 38.43941 -8.72328 10929 ft 288 kts 227°
2026-04-26 18:53 38.42626 -8.74254 10643 ft 288 kts 227°
2026-04-26 18:53 38.41309 -8.76178 10370 ft 288 kts 227°
2026-04-26 18:54 38.39991 -8.78103 10094 ft 288 kts 226°
2026-04-26 18:54 38.38674 -8.80023 9812 ft 288 kts 226°
2026-04-26 18:54 38.37356 -8.81948 9529 ft 287 kts 226°
2026-04-26 18:54 38.36049 -8.83862 9255 ft 286 kts 226°
2026-04-26 18:55 38.34746 -8.85773 8983 ft 285 kts 228°
2026-04-26 18:55 38.33815 -8.87973 8728 ft 284 kts 259°
2026-04-26 18:55 38.33864 -8.90453 8608 ft 281 kts 288°
2026-04-26 18:55 38.34748 -8.92635 8485 ft 275 kts 315°
2026-04-26 18:56 38.36098 -8.94336 8273 ft 272 kts 320°
2026-04-26 18:56 38.37465 -8.95998 7954 ft 269 kts 320°
2026-04-26 18:56 38.38796 -8.97626 7723 ft 263 kts 320°
2026-04-26 18:56 38.40092 -8.99217 7302 ft 262 kts 319°
2026-04-26 18:57 38.41267 -9.01001 6879 ft 261 kts 311°
2026-04-26 18:57 38.42019 -9.02233 6698 ft 259 kts 311°
2026-04-26 18:57 38.43483 -9.04613 6375 ft 257 kts 311°
2026-04-26 18:57 38.44581 -9.06401 6144 ft 256 kts 311°
2026-04-26 18:58 38.45679 -9.08186 5907 ft 255 kts 311°
2026-04-26 18:58 38.46774 -9.09965 5678 ft 254 kts 310°
2026-04-26 18:58 38.47862 -9.11734 5456 ft 253 kts 311°
2026-04-26 18:58 38.48936 -9.13485 5234 ft 250 kts 311°
2026-04-26 18:59 38.50006 -9.15229 5059 ft 249 kts 311°
2026-04-26 18:59 38.51073 -9.16965 4958 ft 249 kts 311°
2026-04-26 18:59 38.52136 -9.18699 4854 ft 245 kts 310°
2026-04-26 18:59 38.53228 -9.20287 4742 ft 232 kts 325°
2026-04-26 19:00 38.54597 -9.21231 4582 ft 219 kts 342°
2026-04-26 19:00 38.55973 -9.21962 4411 ft 214 kts 341°
2026-04-26 19:00 38.57331 -9.22683 4245 ft 209 kts 341°
2026-04-26 19:00 38.58676 -9.23313 4093 ft 202 kts 353°
2026-04-26 19:01 38.60047 -9.23243 3821 ft 198 kts 21°
2026-04-26 19:01 38.61324 -9.22573 3528 ft 199 kts 25°
2026-04-26 19:01 38.62591 -9.21888 3257 ft 195 kts 24°
2026-04-26 19:01 38.63806 -9.21239 3022 ft 183 kts 23°
2026-04-26 19:02 38.64950 -9.20629 2780 ft 175 kts 24°
2026-04-26 19:02 38.66053 -9.20042 2533 ft 168 kts 24°
2026-04-26 19:02 38.67119 -9.19468 2331 ft 163 kts 23°
2026-04-26 19:02 38.67815 -9.19094 2176 ft 163 kts 23°
2026-04-26 19:03 38.69182 -9.18352 1902 ft 152 kts 23°
2026-04-26 19:03 38.70107 -9.17863 1722 ft 140 kts 22°
2026-04-26 19:03 38.70999 -9.17393 1512 ft 138 kts 21°
2026-04-26 19:03 38.71873 -9.16925 1330 ft 135 kts 21°
2026-04-26 19:04 38.72739 -9.16471 1191 ft 136 kts 23°
2026-04-26 19:04 38.73610 -9.16004 1014 ft 135 kts 19°
2026-04-26 19:04 38.74483 -9.15541 791 ft 135 kts 22°
2026-04-26 19:04 38.75370 -9.15058 636 ft 138 kts 19°
2026-04-26 19:05 38.77094 -9.14143 356 ft 126 kts 19°
2026-04-26 19:05 38.77797 -9.13774 350 ft 88 kts 22°
2026-04-26 19:05 38.78197 -9.13557 349 ft 33 kts 25°
2026-04-26 19:06 38.78347 -9.13389 347 ft 18 kts 48°
2026-04-26 19:06 38.78359 -9.13277 354 ft 12 kts 133°
2026-04-26 19:06 38.78289 -9.13278 350 ft 10 kts 197°
2026-04-26 19:06 38.78230 -9.13307 350 ft 9 kts 202°
2026-04-26 19:07 38.78178 -9.13335 352 ft 8 kts 202°
2026-04-26 19:07 38.78133 -9.13359 352 ft 7 kts 202°
2026-04-26 19:07 38.78089 -9.13383 351 ft 10 kts 202°
2026-04-26 19:07 38.77985 -9.13406 347 ft 17 kts 169°
2026-04-26 19:08 38.77911 -9.13387 350 ft 16 kts 169°
2026-04-26 19:08 38.77812 -9.13360 347 ft 13 kts 167°
2026-04-26 19:08 38.77697 -9.13328 354 ft 12 kts 168°
2026-04-26 19:08 38.77601 -9.13320 350 ft 16 kts 179°
2026-04-26 19:09 38.77523 -9.13305 347 ft 18 kts 167°
2026-04-26 19:09 38.77359 -9.13263 353 ft 15 kts 171°
2026-04-26 19:09 38.77280 -9.13247 347 ft 10 kts 169°
2026-04-26 19:09 38.77247 -9.13227 354 ft 8 kts 119°
2026-04-26 19:10 38.77250 -9.13176 355 ft 4 kts 73°
2026-04-26 19:10 38.77253 -9.13161 350 ft 0 kts 74°